Tracking 18987 objects as of 25-Feb-2018
HD Live streaming from Space Station
objects crossing your sky now

FASAT B

Track FASAT B now!
10-day predictions
FASAT B is classified as:


NORAD ID: 25395
Int'l Code: 1998-043B
Perigee: 813.8 km
Apogee: 816.2 km
Inclination: 98.6 °
Period: 101.0 minutes
Semi major axis: 7186 km
RCS: 0.4541 m2 (medium)
Launch date: July 10, 1998
Source: Chile (CHLE)
Launch site: TYURATAM MISSILE AND SPACE COMPLEX (TTMTR)
aabbcc
Your satellite tracking list
Your tracking list is empty




NASA's NSSDC Master Catalog

Two Line Element Set (TLE):
1 25395U 98043B   18055.90872538 +.00000016 +00000-0 +25208-4 0  9997
2 25395 098.5976 000.3440 0001692 276.1354 083.9633 14.25180081020528
Source of the keplerian elements: AFSPC